,,Stat6,,Stat2,,Stat8,,Stat9,,Stat10,,Wind1,,Wind1,
time,status,PA1M_AVG,status,PR1M_SUM,status,RH1M_AVG,status,SR1M_AVG,status,TA1M_AVG,status,W1dAve1m,status,W1sAve1m,
2007-04-05, 00:00:00,VALID,917.669,VALID,0,VALID,100,VALID,0,VALID,20.6271,VALID,183,VALID,1.29421,
2007-04-05, 00:01:00,VALID,917.668,VALID,0,VALID,100,VALID,0,VALID,20.6274,VALID,171,VALID,1.32374,
2007-04-05, 00:02:00,VALID,917.664,VALID,0,VALID,100,VALID,0,VALID,20.6109,VALID,174,VALID,1.17607,
2007-04-05, 00:03:00,VALID,917.65,VALID,0,VALID,100,VALID,0,VALID,20.6141,VALID,169,VALID,1.17551,
2007-04-05, 00:04:00,VALID,917.643,VALID,0,VALID,100,VALID,-0.0339617,VALID,20.6012,VALID,177,VALID,1.95508,
2007-04-05, 00:05:00,VALID,917.635,VALID,0,VALID,100,VALID,0.0169808,VALID,20.6076,VALID,147,VALID,1.65086,
2007-04-05, 00:06:00,VALID,917.641,VALID,0,VALID,99.9865,VALID,-0.0169808,VALID,20.6661,VALID,136,VALID,1.943,
2007-04-05, 00:07:00,VALID,917.603,VALID,0,VALID,99.7421,VALID,-0.0169808,VALID,20.741,VALID,161,VALID,1.48285,
2007-04-05, 00:08:00,VALID,917.591,VALID,0,VALID,99.6913,VALID,-0.0169808,VALID,20.7572,VALID,145,VALID,1.13361,
2007-04-05, 00:09:00,VALID,917.572,VALID,0,VALID,99.6595,VALID,-0.0339617,VALID,20.7245,VALID,142,VALID,1.65253,
2007-04-05, 00:10:00,VALID,917.557,VALID,0,VALID,99.7993,VALID,-0.0509425,VALID,20.7345,VALID,158,VALID,1.13002,
2007-04-05, 00:11:00,VALID,917.522,VALID,0,VALID,99.8718,VALID,0,VALID,20.7215,VALID,163,VALID,1.11998,
2007-04-05, 00:12:00,VALID,917.504,VALID,0,VALID,99.9781,VALID,0,VALID,20.6983,VALID,168,VALID,1.63477,
2007-04-05, 00:13:00,VALID,917.476,VALID,0.2,VALID,100,VALID,-0.0679233,VALID,20.6961,VALID,165,VALID,1.55888,
2007-04-05, 00:14:00,VALID,917.457,VALID,0,VALID,100,VALID,-0.0849042,VALID,20.6839,VALID,166,VALID,1.57976,
2007-04-05, 00:15:00,VALID,917.446,VALID,0,VALID,99.9733,VALID,-0.101885,VALID,20.6941,VALID,170,VALID,1.31752,
2007-04-05, 00:16:00,VALID,917.426,VALID,0,VALID,99.9916,VALID,-0.101885,VALID,20.6936,VALID,156,VALID,0.961496,
2007-04-05, 00:17:00,VALID,917.42,VALID,0,VALID,100,VALID,-0.101885,VALID,20.6841,VALID,146,VALID,1.04031,
2007-04-05, 00:18:00,VALID,917.411,VALID,0,VALID,100,VALID,-0.101885,VALID,20.6676,VALID,147,VALID,1.18423,
2007-04-05, 00:19:00,VALID,917.409,VALID,0,VALID,100,VALID,-0.0849042,VALID,20.6519,VALID,141,VALID,1.19442,
2007-04-05, 00:20:00,VALID,917.395,VALID,0,VALID,100,VALID,-0.101885,VALID,20.6349,VALID,149,VALID,1.36265,
2007-04-05, 00:21:00,VALID,917.381,VALID,0,VALID,100,VALID,-0.0679233,VALID,20.6352,VALID,152,VALID,1.75745,
2007-04-05, 00:22:00,VALID,917.376,VALID,0,VALID,100,VALID,-0.0509425,VALID,20.6411,VALID,149,VALID,1.58293,
2007-04-05, 00:23:00,VALID,917.368,VALID,0,VALID,99.8604,VALID,-0.0509425,VALID,20.6609,VALID,155,VALID,1.38396,
2007-04-05, 00:24:00,VALID,917.365,VALID,0,VALID,99.6938,VALID,-0.0509425,VALID,20.6736,VALID,161,VALID,1.41964,
2007-04-05, 00:25:01,VALID,917.356,VALID,0,VALID,99.4827,VALID,-0.0849042,VALID,20.6731,VALID,158,VALID,1.41883,
2007-04-05, 00:26:00,VALID,917.366,VALID,0,VALID,99.25,VALID,-0.0509425,VALID,20.6926,VALID,162,VALID,1.24836,
2007-04-05, 00:27:01,VALID,917.361,VALID,0,VALID,99.0326,VALID,-0.0679233,VALID,20.7285,VALID,164,VALID,0.877841,
2007-04-05, 00:28:00,VALID,917.365,VALID,0,VALID,98.9817,VALID,-0.0849042,VALID,20.751,VALID,170,VALID,1.07116,
2007-04-05, 00:29:00,VALID,917.337,VALID,0,VALID,98.9181,VALID,0.0169808,VALID,20.744,VALID,173,VALID,1.17006,
2007-04-05, 00:30:00,VALID,917.304,VALID,0,VALID,98.8507,VALID,0.0339617,VALID,20.7404,VALID,176,VALID,0.950763,
2007-04-05, 00:31:00,VALID,917.271,VALID,0,VALID,98.7973,VALID,0.0339617,VALID,20.7402,VALID,190,VALID,1.1824,
2007-04-05, 00:32:00,VALID,917.232,VALID,0,VALID,98.7719,VALID,0.0339617,VALID,20.7302,VALID,175,VALID,1.20617,
2007-04-05, 00:33:01,VALID,917.214,VALID,0,VALID,98.8355,VALID,0.0679233,VALID,20.7307,VALID,151,VALID,0.697088,
2007-04-05, 00:34:00,VALID,917.212,VALID,0,VALID,98.8901,VALID,0,VALID,20.718,VALID,171,VALID,0.99907,
2007-04-05, 00:35:00,VALID,917.205,VALID,0.2,VALID,98.9461,VALID,0.0679233,VALID,20.7015,VALID,176,VALID,0.795313,
2007-04-05, 00:36:01,VALID,917.203,VALID,0,VALID,99.1089,VALID,0.0339617,VALID,20.6858,VALID,194,VALID,0.823038,
2007-04-05, 00:37:00,VALID,917.206,VALID,0,VALID,99.3848,VALID,0.0509425,VALID,20.6493,VALID,200,VALID,0.696039,
2007-04-05, 00:38:00,VALID,917.226,VALID,0,VALID,99.6239,VALID,0.0509425,VALID,20.6263,VALID,172,VALID,0.858665,
2007-04-05, 00:39:00,VALID,917.242,VALID,0,VALID,99.8286,VALID,0.0509425,VALID,20.5869,VALID,148,VALID,0.8125,
2007-04-05, 00:40:00,VALID,917.24,VALID,0,VALID,99.9804,VALID,0.0509425,VALID,20.5582,VALID,149,VALID,0.810826,
2007-04-05, 00:41:00,VALID,917.24,VALID,0,VALID,100,VALID,-0.0169808,VALID,20.5298,VALID,134,VALID,0.909624,
2007-04-05, 00:42:00,VALID,917.237,VALID,0,VALID,100,VALID,0.0169808,VALID,20.507,VALID,128,VALID,0.775923,
2007-04-05, 00:43:00,VALID,917.232,VALID,0,VALID,100,VALID,0,VALID,20.4773,VALID,115,VALID,0.893895,
2007-04-05, 00:44:01,VALID,917.213,VALID,0,VALID,100,VALID,0,VALID,20.4649,VALID,113,VALID,0.594429,
2007-04-05, 00:45:01,VALID,917.215,VALID,0,VALID,100,VALID,0.0509425,VALID,20.4511,VALID,138,VALID,0.89027,
2007-04-05, 00:46:00,VALID,917.21,VALID,0,VALID,100,VALID,0.0169808,VALID,20.4484,VALID,142,VALID,1.36551,
2007-04-05, 00:47:01,VALID,917.183,VALID,0,VALID,100,VALID,0,VALID,20.4419,VALID,136,VALID,1.26791,
2007-04-05, 00:48:00,VALID,917.153,VALID,0,VALID,100,VALID,0,VALID,20.4186,VALID,128,VALID,0.953307,
2007-04-05, 00:49:01,VALID,917.151,VALID,0,VALID,100,VALID,0.0169808,VALID,20.4257,VALID,131,VALID,1.21189,
2007-04-05, 00:50:01,VALID,917.136,VALID,0,VALID,100,VALID,0.0169808,VALID,20.4024,VALID,145,VALID,1.17454,
2007-04-05, 00:51:00,VALID,917.128,VALID,0,VALID,100,VALID,0,VALID,20.3999,VALID,136,VALID,1.26321,
2007-04-05, 00:52:00,VALID,917.108,VALID,0,VALID,100,VALID,0.0169808,VALID,20.3967,VALID,123,VALID,1.15863,
2007-04-05, 00:53:00,VALID,917.085,VALID,0,VALID,100,VALID,-0.0169808,VALID,20.3937,VALID,133,VALID,1.55888,
2007-04-05, 00:54:00,VALID,917.074,VALID,0,VALID,100,VALID,0.0339617,VALID,20.3807,VALID,147,VALID,1.99619,
2007-04-05, 00:55:00,VALID,917.043,VALID,0,VALID,100,VALID,0,VALID,20.3807,VALID,166,VALID,1.44087,
2007-04-05, 00:56:00,VALID,917.029,VALID,0,VALID,100,VALID,0.0169808,VALID,20.3637,VALID,165,VALID,1.70275,
2007-04-05, 00:57:00,VALID,917.03,VALID,0,VALID,100,VALID,0,VALID,20.3605,VALID,183,VALID,1.20022,
2007-04-05, 00:58:00,VALID,917.049,VALID,0,VALID,100,VALID,0.0339617,VALID,20.3675,VALID,167,VALID,1.41908,
2007-04-05, 00:59:01,VALID,917.062,VALID,0,VALID,100,VALID,0,VALID,20.364,VALID,156,VALID,1.48509,
2007-04-05, 01:00:01,VALID,917.045,VALID,0,VALID,100,VALID,0.0169808,VALID,20.361,VALID,158,VALID,1.52562,
2007-04-05, 01:01:01,VALID,917.055,VALID,0,VALID,100,VALID,-0.0169808,VALID,20.351,VALID,170,VALID,1.31486,
2007-04-05, 01:02:00,VALID,917.058,VALID,0,VALID,100,VALID,0.0169808,VALID,20.3613,VALID,151,VALID,0.906064,
2007-04-05, 01:03:00,VALID,917.05,VALID,0,VALID,100,VALID,-0.0169808,VALID,20.3613,VALID,158,VALID,0.990141,
2007-04-05, 01:04:01,VALID,917.037,VALID,0,VALID,100,VALID,-0.0169808,VALID,20.3548,VALID,172,VALID,1.12062,
2007-04-05, 01:05:00,VALID,916.981,VALID,0,VALID,100,VALID,0.0169808,VALID,20.3475,VALID,184,VALID,0.762536,
2007-04-05, 01:06:01,VALID,916.965,VALID,0,VALID,100,VALID,0.0169808,VALID,20.328,VALID,177,VALID,1.81979,
2007-04-05, 01:07:00,VALID,916.938,VALID,0,VALID,100,VALID,0,VALID,20.3286,VALID,180,VALID,1.13002,
2007-04-05, 01:08:00,VALID,916.924,VALID,0,VALID,100,VALID,0,VALID,20.3223,VALID,188,VALID,0.884084,
2007-04-05, 01:09:00,VALID,916.92,VALID,0,VALID,100,VALID,0,VALID,20.3291,VALID,163,VALID,1.04059,
2007-04-05, 01:10:00,VALID,916.914,VALID,0,VALID,100,VALID,-0.0169808,VALID,20.3093,VALID,166,VALID,1.25837,
2007-04-05, 01:11:01,VALID,916.894,VALID,0,VALID,100,VALID,0,VALID,20.3064,VALID,173,VALID,2.08303,
2007-04-05, 01:12:00,VALID,916.886,VALID,0,VALID,100,VALID,0,VALID,20.2993,VALID,163,VALID,1.49201,
2007-04-05, 01:13:01,VALID,916.878,VALID,0,VALID,100,VALID,0.0169808,VALID,20.3026,VALID,155,VALID,1.65644,
2007-04-05, 01:14:01,VALID,916.846,VALID,0,VALID,100,VALID,0,VALID,20.3023,VALID,172,VALID,1.50409,
2007-04-05, 01:15:01,VALID,916.849,VALID,0.2,VALID,100,VALID,0.0169808,VALID,20.3023,VALID,179,VALID,1.00167,
2007-04-05, 01:16:00,VALID,916.834,VALID,0,VALID,100,VALID,0.0339617,VALID,20.2986,VALID,174,VALID,0.883721,
2007-04-05, 01:17:01,VALID,916.837,VALID,0,VALID,100,VALID,0,VALID,20.3028,VALID,158,VALID,1.76903,
2007-04-05, 01:18:00,VALID,916.821,VALID,0,VALID,100,VALID,0,VALID,20.2894,VALID,161,VALID,1.3647,
2007-04-05, 01:19:01,VALID,916.808,VALID,0,VALID,100,VALID,0.0169808,VALID,20.2821,VALID,163,VALID,1.50176,
2007-04-05, 01:20:01,VALID,916.791,VALID,0,VALID,100,VALID,0.0169808,VALID,20.2894,VALID,178,VALID,1.47377,
2007-04-05, 01:21:01,VALID,916.783,VALID,0,VALID,100,VALID,0,VALID,20.2896,VALID,159,VALID,1.59411,
2007-04-05, 01:22:01,VALID,916.765,VALID,0,VALID,100,VALID,0.0169808,VALID,20.2899,VALID,165,VALID,1.56019,
2007-04-05, 01:23:01,VALID,916.765,VALID,0,VALID,100,VALID,0.0169808,VALID,20.2796,VALID,160,VALID,1.54592,
2007-04-05, 01:24:01,VALID,916.734,VALID,0,VALID,100,VALID,0,VALID,20.2566,VALID,169,VALID,1.39249,
2007-04-05, 01:25:01,VALID,916.734,VALID,0,VALID,100,VALID,0,VALID,20.2529,VALID,157,VALID,1.32656,
2007-04-05, 01:26:00,VALID,916.719,VALID,0,VALID,100,VALID,0,VALID,20.2504,VALID,161,VALID,1.36886,
2007-04-05, 01:27:00,VALID,916.714,VALID,0,VALID,100,VALID,0.0339617,VALID,20.2502,VALID,158,VALID,1.54043,
2007-04-05, 01:28:00,VALID,916.688,VALID,0,VALID,100,VALID,0.0169808,VALID,20.2339,VALID,148,VALID,2.07249,
2007-04-05, 01:29:00,VALID,916.669,VALID,0,VALID,100,VALID,-0.0169808,VALID,20.2252,VALID,160,VALID,1.95964,
2007-04-05, 01:30:00,VALID,916.652,VALID,0,VALID,100,VALID,-0.101885,VALID,20.212,VALID,165,VALID,1.90534,
2007-04-05, 01:31:00,VALID,916.647,VALID,0,VALID,100,VALID,-0.0849042,VALID,20.2392,VALID,155,VALID,2.12872,
2007-04-05, 01:32:00,VALID,916.633,VALID,0,VALID,100,VALID,-0.0849042,VALID,20.2417,VALID,152,VALID,1.54972,
2007-04-05, 01:33:00,VALID,916.623,VALID,0.2,VALID,100,VALID,-0.101885,VALID,20.2517,VALID,141,VALID,2.02217,
2007-04-05, 01:34:00,VALID,916.616,VALID,0,VALID,100,VALID,-0.101885,VALID,20.2484,VALID,146,VALID,2.14608,
2007-04-05, 01:35:00,VALID,916.594,VALID,0,VALID,100,VALID,-0.0679233,VALID,20.2482,VALID,150,VALID,1.86047,
2007-04-05, 01:36:00,VALID,916.582,VALID,0,VALID,100,VALID,-0.0849042,VALID,20.2514,VALID,154,VALID,2.03924,
2007-04-05, 01:37:00,VALID,916.565,VALID,0,VALID,100,VALID,-0.0849042,VALID,20.2422,VALID,151,VALID,2.36626,
2007-04-05, 01:38:00,VALID,916.576,VALID,0,VALID,100,VALID,-0.101885,VALID,20.2579,VALID,145,VALID,1.68623,
2007-04-05, 01:39:00,VALID,916.571,VALID,0,VALID,100,VALID,-0.0339617,VALID,20.2836,VALID,150,VALID,1.66944,
2007-04-05, 01:40:00,VALID,916.567,VALID,0,VALID,100,VALID,-0.0849042,VALID,20.2744,VALID,157,VALID,2.31595,
2007-04-05, 01:41:00,VALID,916.574,VALID,0.2,VALID,100,VALID,-0.0679233,VALID,20.2707,VALID,155,VALID,2.11328,
2007-04-05, 01:42:00,VALID,916.587,VALID,0,VALID,100,VALID,-0.0509425,VALID,20.2771,VALID,154,VALID,1.72039,
2007-04-05, 01:43:00,VALID,916.608,VALID,0,VALID,100,VALID,-0.101885,VALID,20.2682,VALID,146,VALID,1.85762,
2007-04-05, 01:44:00,VALID,916.622,VALID,0,VALID,100,VALID,-0.0849042,VALID,20.2684,VALID,153,VALID,1.74349,
2007-04-05, 01:45:00,VALID,916.619,VALID,0,VALID,100,VALID,-0.118866,VALID,20.2584,VALID,158,VALID,1.58285,
2007-04-05, 01:46:00,VALID,916.611,VALID,0,VALID,100,VALID,-0.0679233,VALID,20.2509,VALID,159,VALID,1.40454,
2007-04-05, 01:47:00,VALID,916.612,VALID,0,VALID,100,VALID,-0.0339617,VALID,20.2482,VALID,160,VALID,1.61551,
2007-04-05, 01:48:00,VALID,916.611,VALID,0,VALID,100,VALID,-0.0849042,VALID,20.2352,VALID,169,VALID,1.55097,
2007-04-05, 01:49:00,VALID,916.621,VALID,0,VALID,100,VALID,-0.0849042,VALID,20.2285,VALID,165,VALID,1.27483,
2007-04-05, 01:50:00,VALID,916.629,VALID,0,VALID,100,VALID,-0.0509425,VALID,20.2225,VALID,155,VALID,1.33403,
2007-04-05, 01:51:00,VALID,916.63,VALID,0,VALID,100,VALID,-0.0679233,VALID,20.2063,VALID,162,VALID,1.62409,
2007-04-05, 01:52:00,VALID,916.62,VALID,0,VALID,100,VALID,-0.0679233,VALID,20.1928,VALID,163,VALID,1.9724,
2007-04-05, 01:53:00,VALID,916.644,VALID,0,VALID,100,VALID,-0.0509425,VALID,20.1995,VALID,159,VALID,1.5484,
2007-04-05, 01:54:00,VALID,916.642,VALID,0,VALID,100,VALID,-0.101885,VALID,20.1998,VALID,152,VALID,1.61582,
2007-04-05, 01:55:00,VALID,916.636,VALID,0.2,VALID,100,VALID,-0.101885,VALID,20.2,VALID,148,VALID,1.58445,
2007-04-05, 01:56:00,VALID,916.638,VALID,0,VALID,100,VALID,-0.101885,VALID,20.1835,VALID,163,VALID,1.56641,
2007-04-05, 01:57:00,VALID,916.635,VALID,0,VALID,99.9893,VALID,-0.0849042,VALID,20.1905,VALID,163,VALID,1.66493,
2007-04-05, 01:58:00,VALID,916.635,VALID,0,VALID,99.9672,VALID,-0.101885,VALID,20.2033,VALID,154,VALID,1.35666,
2007-04-05, 01:59:00,VALID,916.655,VALID,0,VALID,99.8985,VALID,-0.0679233,VALID,20.1895,VALID,161,VALID,1.3149,
2007-04-05, 02:00:00,VALID,916.635,VALID,0,VALID,99.8489,VALID,-0.101885,VALID,20.1903,VALID,164,VALID,1.24201,
2007-04-05, 02:01:00,VALID,916.646,VALID,0,VALID,99.8502,VALID,-0.101885,VALID,20.1938,VALID,155,VALID,1.3205,
2007-04-05, 02:02:00,VALID,916.643,VALID,0,VALID,99.7803,VALID,-0.0849042,VALID,20.1738,VALID,154,VALID,1.10014,
2007-04-05, 02:03:00,VALID,916.65,VALID,0,VALID,99.8655,VALID,-0.101885,VALID,20.1803,VALID,154,VALID,0.934048,
2007-04-05, 02:04:00,VALID,916.615,VALID,0,VALID,99.8871,VALID,-0.0849042,VALID,20.1741,VALID,155,VALID,1.47962,
2007-04-05, 02:05:00,VALID,916.609,VALID,0.2,VALID,99.8782,VALID,-0.118866,VALID,20.1586,VALID,161,VALID,1.27477,
2007-04-05, 02:06:00,VALID,916.579,VALID,0,VALID,99.8273,VALID,-0.0679233,VALID,20.1351,VALID,154,VALID,1.24146,
2007-04-05, 02:07:00,VALID,916.57,VALID,0,VALID,99.7841,VALID,-0.101885,VALID,20.1254,VALID,141,VALID,1.50798,
2007-04-05, 02:08:00,VALID,916.565,VALID,0,VALID,99.7777,VALID,-0.0849042,VALID,20.1092,VALID,138,VALID,1.46875,
2007-04-05, 02:09:00,VALID,916.556,VALID,0,VALID,99.7536,VALID,-0.101885,VALID,20.1094,VALID,149,VALID,1.7875,
2007-04-05, 02:10:00,VALID,916.538,VALID,0.2,VALID,99.7726,VALID,-0.101885,VALID,20.1062,VALID,148,VALID,1.3184,
2007-04-05, 02:11:00,VALID,916.504,VALID,0,VALID,99.8349,VALID,-0.135847,VALID,20.1027,VALID,162,VALID,1.17862,
2007-04-05, 02:12:00,VALID,916.503,VALID,0,VALID,99.9138,VALID,-0.0849042,VALID,20.0924,VALID,153,VALID,1.93395,
2007-04-05, 02:13:00,VALID,916.489,VALID,0,VALID,99.9606,VALID,-0.0679233,VALID,20.1029,VALID,142,VALID,1.72396,
2007-04-05, 02:14:00,VALID,916.473,VALID,0,VALID,100,VALID,0,VALID,20.0884,VALID,149,VALID,1.68674,
2007-04-05, 02:15:00,VALID,916.458,VALID,0,VALID,100,VALID,0,VALID,20.0754,VALID,143,VALID,1.53445,
2007-04-05, 02:16:00,VALID,916.437,VALID,0.2,VALID,100,VALID,-0.0169808,VALID,20.0527,VALID,142,VALID,1.34121,
2007-04-05, 02:17:00,VALID,916.4,VALID,0,VALID,100,VALID,0,VALID,20.0268,VALID,146,VALID,1.25577,
2007-04-05, 02:18:00,VALID,916.398,VALID,0,VALID,100,VALID,0.0509425,VALID,20.013,VALID,148,VALID,1.48742,
2007-04-05, 02:19:00,VALID,916.385,VALID,0,VALID,100,VALID,0.0169808,VALID,20.0001,VALID,149,VALID,1.36543,
2007-04-05, 02:20:00,VALID,916.376,VALID,0.2,VALID,100,VALID,0.0169808,VALID,19.9908,VALID,140,VALID,1.2133,
2007-04-05, 02:21:00,VALID,916.361,VALID,0,VALID,100,VALID,-0.0169808,VALID,19.9878,VALID,148,VALID,1.43845,
2007-04-05, 02:22:00,VALID,916.351,VALID,0,VALID,100,VALID,0,VALID,19.9651,VALID,153,VALID,1.60785,
2007-04-05, 02:23:00,VALID,916.324,VALID,0,VALID,100,VALID,0,VALID,19.9486,VALID,151,VALID,1.20087,
2007-04-05, 02:24:00,VALID,916.298,VALID,0,VALID,100,VALID,0.0169808,VALID,19.9319,VALID,152,VALID,1.63672,
2007-04-05, 02:25:00,VALID,916.27,VALID,0.2,VALID,100,VALID,0,VALID,19.9187,VALID,158,VALID,1.91443,
2007-04-05, 02:26:00,VALID,916.264,VALID,0,VALID,100,VALID,-0.0169808,VALID,19.9154,VALID,159,VALID,1.79353,
2007-04-05, 02:27:00,VALID,916.236,VALID,0,VALID,100,VALID,0.0339617,VALID,19.9127,VALID,164,VALID,1.91927,
2007-04-05, 02:28:00,VALID,916.227,VALID,0,VALID,100,VALID,0.0339617,VALID,19.9162,VALID,157,VALID,1.57067,
2007-04-05, 02:29:00,VALID,916.203,VALID,0,VALID,100,VALID,-0.101885,VALID,19.9147,VALID,157,VALID,1.67336,
2007-04-05, 02:30:00,VALID,916.18,VALID,0,VALID,100,VALID,-0.118866,VALID,19.8982,VALID,153,VALID,1.73935,
2007-04-05, 02:31:00,VALID,916.157,VALID,0,VALID,100,VALID,-0.0849042,VALID,19.8882,VALID,148,VALID,1.87962,
2007-04-05, 02:32:00,VALID,916.13,VALID,0,VALID,100,VALID,-0.0849042,VALID,19.8853,VALID,147,VALID,1.91462,
2007-04-05, 02:33:00,VALID,916.107,VALID,0.2,VALID,100,VALID,-0.118866,VALID,19.8848,VALID,153,VALID,2.30618,
2007-04-05, 02:34:00,VALID,916.09,VALID,0,VALID,100,VALID,-0.0849042,VALID,19.898,VALID,145,VALID,1.706,
2007-04-05, 02:35:00,VALID,916.063,VALID,0,VALID,100,VALID,-0.0679233,VALID,19.8977,VALID,137,VALID,1.68869,
2007-04-05, 02:36:00,VALID,916.06,VALID,0,VALID,100,VALID,-0.101885,VALID,19.888,VALID,148,VALID,2.03054,
2007-04-05, 02:37:00,VALID,916.04,VALID,0,VALID,100,VALID,-0.0849042,VALID,19.9017,VALID,145,VALID,1.88281,
2007-04-05, 02:38:00,VALID,916.012,VALID,0,VALID,100,VALID,-0.101885,VALID,19.9112,VALID,149,VALID,1.76448,
2007-04-05, 02:39:00,VALID,915.987,VALID,0,VALID,100,VALID,-0.101885,VALID,19.9077,VALID,141,VALID,1.87445,
2007-04-05, 02:40:00,VALID,915.974,VALID,0,VALID,100,VALID,-0.0849042,VALID,19.9045,VALID,151,VALID,1.89101,
2007-04-05, 02:41:00,VALID,915.958,VALID,0,VALID,100,VALID,-0.0849042,VALID,19.9082,VALID,154,VALID,1.62556,
2007-04-05, 02:42:00,VALID,915.954,VALID,0,VALID,100,VALID,-0.101885,VALID,19.904,VALID,150,VALID,1.59524,
2007-04-05, 02:43:00,VALID,915.933,VALID,0.2,VALID,100,VALID,-0.0679233,VALID,19.911,VALID,153,VALID,1.37383,
2007-04-05, 02:44:00,VALID,915.922,VALID,0,VALID,100,VALID,-0.0849042,VALID,19.9012,VALID,143,VALID,1.62749,
2007-04-05, 02:45:00,VALID,915.918,VALID,0,VALID,100,VALID,-0.0849042,VALID,19.9082,VALID,158,VALID,1.32726,
2007-04-05, 02:46:00,VALID,915.908,VALID,0,VALID,100,VALID,-0.0849042,VALID,19.9012,VALID,144,VALID,1.52271,
2007-04-05, 02:47:00,VALID,915.885,VALID,0,VALID,100,VALID,-0.0679233,VALID,19.8977,VALID,151,VALID,1.69622,
2007-04-05, 02:48:00,VALID,915.875,VALID,0,VALID,100,VALID,-0.0679233,VALID,19.9015,VALID,149,VALID,1.78416,
2007-04-05, 02:49:00,VALID,915.869,VALID,0,VALID,100,VALID,-0.0849042,VALID,19.888,VALID,139,VALID,1.63003,
2007-04-05, 02:50:00,VALID,915.855,VALID,0.2,VALID,100,VALID,-0.101885,VALID,19.898,VALID,165,VALID,2.24237,
2007-04-05, 02:51:00,VALID,915.847,VALID,0,VALID,100,VALID,-0.0849042,VALID,19.9007,VALID,147,VALID,2.325,
2007-04-05, 02:52:00,VALID,915.836,VALID,0,VALID,100,VALID,-0.0849042,VALID,19.9337,VALID,154,VALID,2.149,
2007-04-05, 02:53:00,VALID,915.836,VALID,0,VALID,100,VALID,-0.0849042,VALID,19.9332,VALID,150,VALID,1.8856,
2007-04-05, 02:54:00,VALID,915.833,VALID,0,VALID,100,VALID,-0.0849042,VALID,19.9399,VALID,144,VALID,1.46021,
2007-04-05, 02:55:00,VALID,915.828,VALID,0,VALID,100,VALID,-0.0849042,VALID,19.9399,VALID,149,VALID,2.24023,
2007-04-05, 02:56:00,VALID,915.822,VALID,0,VALID,99.8535,VALID,-0.0509425,VALID,19.9432,VALID,130,VALID,2.81362,
2007-04-05, 02:57:00,VALID,915.815,VALID,0,VALID,99.3556,VALID,-0.101885,VALID,19.9754,VALID,149,VALID,1.82177,
2007-04-05, 02:58:00,VALID,915.818,VALID,0,VALID,99.3149,VALID,-0.0679233,VALID,20.0078,VALID,144,VALID,1.68023,
2007-04-05, 02:59:00,VALID,915.817,VALID,0,VALID,99.409,VALID,-0.0169808,VALID,20.0008,VALID,136,VALID,1.98028,
2007-04-05, 03:00:00,VALID,915.804,VALID,0,VALID,99.5641,VALID,0,VALID,20.0041,VALID,147,VALID,1.47602,
2007-04-05, 03:01:00,VALID,915.789,VALID,0.2,VALID,99.7091,VALID,-0.0169808,VALID,19.9911,VALID,137,VALID,1.91257,
2007-04-05, 03:02:00,VALID,915.771,VALID,0,VALID,99.7904,VALID,-0.0339617,VALID,19.9883,VALID,161,VALID,1.57213,
2007-04-05, 03:03:00,VALID,915.763,VALID,0,VALID,99.9415,VALID,-0.0339617,VALID,19.9783,VALID,165,VALID,1.2152,
2007-04-05, 03:04:00,VALID,915.762,VALID,0,VALID,100,VALID,-0.0339617,VALID,19.9651,VALID,161,VALID,1.54457,
2007-04-05, 03:05:00,VALID,915.75,VALID,0,VALID,100,VALID,-0.0169808,VALID,19.9489,VALID,172,VALID,1.32413,
2007-04-05, 03:06:00,VALID,915.763,VALID,0,VALID,100,VALID,-0.0339617,VALID,19.9559,VALID,158,VALID,1.50781,
2007-04-05, 03:07:00,VALID,915.753,VALID,0,VALID,100,VALID,-0.0339617,VALID,19.9369,VALID,165,VALID,1.58689,
2007-04-05, 03:08:00,VALID,915.735,VALID,0,VALID,100,VALID,-0.0509425,VALID,19.9399,VALID,144,VALID,1.80003,
2007-04-05, 03:09:00,VALID,915.728,VALID,0,VALID,100,VALID,-0.0509425,VALID,19.9427,VALID,155,VALID,2.18892,
2007-04-05, 03:10:00,VALID,915.721,VALID,0,VALID,100,VALID,-0.0339617,VALID,19.9459,VALID,160,VALID,1.73028,
2007-04-05, 03:11:00,VALID,915.713,VALID,0,VALID,100,VALID,-0.0849042,VALID,19.9654,VALID,165,VALID,1.13881,
2007-04-05, 03:12:00,VALID,915.703,VALID,0,VALID,100,VALID,-0.0679233,VALID,19.9559,VALID,169,VALID,1.18255,
2007-04-05, 03:13:00,VALID,915.71,VALID,0,VALID,100,VALID,-0.0679233,VALID,19.9564,VALID,159,VALID,0.948153,
2007-04-05, 03:14:00,VALID,915.699,VALID,0,VALID,100,VALID,-0.0169808,VALID,19.9429,VALID,150,VALID,1.5958,
2007-04-05, 03:15:00,VALID,915.69,VALID,0,VALID,100,VALID,-0.0849042,VALID,19.9364,VALID,139,VALID,1.71337,
2007-04-05, 03:16:00,VALID,915.695,VALID,0,VALID,100,VALID,-0.0509425,VALID,19.9364,VALID,143,VALID,1.74774,
2007-04-05, 03:17:00,VALID,915.656,VALID,0,VALID,100,VALID,-0.0679233,VALID,19.9297,VALID,152,VALID,1.9028,
2007-04-05, 03:18:00,VALID,915.637,VALID,0,VALID,100,VALID,-0.0169808,VALID,19.9394,VALID,162,VALID,1.96968,
2007-04-05, 03:19:00,VALID,915.62,VALID,0,VALID,100,VALID,-0.0169808,VALID,19.9591,VALID,151,VALID,2.38192,
2007-04-05, 03:20:00,VALID,915.611,VALID,0,VALID,100,VALID,-0.0169808,VALID,19.9813,VALID,156,VALID,1.99336,
2007-04-05, 03:21:00,VALID,915.575,VALID,0,VALID,100,VALID,-0.0339617,VALID,20.0143,VALID,173,VALID,1.46166,
2007-04-05, 03:22:00,VALID,915.548,VALID,0,VALID,100,VALID,-0.0339617,VALID,19.9946,VALID,160,VALID,1.36083,
2007-04-05, 03:23:00,VALID,915.538,VALID,0,VALID,100,VALID,0,VALID,19.9978,VALID,154,VALID,1.53906,
2007-04-05, 03:24:00,VALID,915.533,VALID,0,VALID,100,VALID,-0.0339617,VALID,19.9816,VALID,162,VALID,1.26048,
2007-04-05, 03:25:00,VALID,915.515,VALID,0,VALID,100,VALID,-0.0679233,VALID,19.9783,VALID,167,VALID,1.29892,
2007-04-05, 03:26:00,VALID,915.505,VALID,0,VALID,100,VALID,-0.0339617,VALID,19.9689,VALID,178,VALID,1.8254,
2007-04-05, 03:27:00,VALID,915.484,VALID,0,VALID,100,VALID,-0.0509425,VALID,19.9821,VALID,155,VALID,1.30878,
2007-04-05, 03:28:00,VALID,915.465,VALID,0,VALID,99.983,VALID,-0.0849042,VALID,19.9883,VALID,169,VALID,1.30608,
2007-04-05, 03:29:00,VALID,915.467,VALID,0,VALID,99.8782,VALID,-0.0339617,VALID,19.9686,VALID,160,VALID,1.25573,
2007-04-05, 03:30:00,VALID,915.464,VALID,0,VALID,99.8413,VALID,-0.0509425,VALID,19.9881,VALID,170,VALID,1.26451,
2007-04-05, 03:31:00,VALID,915.449,VALID,0,VALID,99.7841,VALID,-0.101885,VALID,19.9948,VALID,145,VALID,1.16406,
2007-04-05, 03:32:00,VALID,915.444,VALID,0,VALID,99.7993,VALID,-0.0849042,VALID,19.9916,VALID,150,VALID,0.914993,
2007-04-05, 03:33:00,VALID,915.433,VALID,0,VALID,99.8731,VALID,-0.0849042,VALID,19.9818,VALID,172,VALID,0.777902,
2007-04-05, 03:34:00,VALID,915.427,VALID,0,VALID,99.9672,VALID,-0.0509425,VALID,19.9626,VALID,171,VALID,0.789993,
2007-04-05, 03:35:00,VALID,915.424,VALID,0,VALID,100,VALID,-0.0509425,VALID,19.9432,VALID,167,VALID,0.913542,
2007-04-05, 03:36:00,VALID,915.431,VALID,0,VALID,100,VALID,-0.0849042,VALID,19.9135,VALID,161,VALID,0.852471,
2007-04-05, 03:37:00,VALID,915.411,VALID,0,VALID,100,VALID,-0.0679233,VALID,19.9077,VALID,109,VALID,0.489211,